Weather History for Harbor Springs, MI

Change the Weather History Date:

Sunday, March 17, 2013

  Actual Average (KPLN) Record (KPLN)
Temperature  
Mean Temperature 18 °F -  
Max Temperature 23 °F 37 °F 80 °F (2012)
Min Temperature 12 °F 15 °F -12 °F (1959)
Degree Days  
Heating Degree Days 48    
Moisture  
Dew Point 6 °F    
Average Humidity 63    
Maximum Humidity 91    
Minimum Humidity 41    
Precipitation  
Precipitation 0.00 in - - ()
Sea Level Pressure  
Sea Level Pressure 30.22 in    
Wind  
Wind Speed 8 mph (NE)    
Max Wind Speed 17 mph    
Max Gust Speed 30 mph    
Visibility 9 miles    
Events Snow    
Averages and records for this station are not official NWS values.
T = Trace of Precipitation, MM = Missing Value Source: NWS Daily Summary

Daily Weather History Graph

Daily Weather History Graph

Search for Another Location

Airport:

Trip Planner

Search our weather history database for the weather conditions in past years. The results will help you decide how hot, cold, wet, or windy it might be!

Date:

Astronomy

Mar. 17, 2013 Rise Set
Actual Time 7:47 AM EDT 7:48 PM EDT
Civil Twilight 7:18 AM EDT 8:18 PM EDT
Nautical Twilight 6:44 AM EDT 8:52 PM EDT
Astronomical Twilight 6:08 AM EDT 9:28 PM EDT
Moon 10:44 AM EDT (3/17) 1:11 AM EDT (3/17)
Length of Visible Light 12h 59m
Length of Day
12h 00m
Waxing Crescent, 31% of the Moon is Illuminated
Mar 17
Waxing Crescent
Mar 19
First Quarter
Mar 27
Full
Apr 3
Last Quarter
Apr 10
New

Hourly Weather History & Observations

Time (EDT) Temp. Windchill Dew Point Humidity Pressure Visibility Wind Dir Wind Speed Gust Speed Precip Events Conditions
12:14 AM 19.4 °F 11.5 °F 16.0 °F 87% 30.01 in 1.0 mi WSW 5.8 mph - N/A Snow Snow
12:34 AM 20.3 °F 12.5 °F 18.1 °F 91% 30.01 in 1.0 mi SW 5.8 mph - N/A Snow Snow
12:54 AM 21.0 °F 8.6 °F 18.5 °F 90% 30.02 in 1.0 mi NW 12.7 mph 25.3 mph N/A Snow Light Snow
1:14 AM 21.2 °F 8.9 °F 14.4 °F 75% 30.02 in 4.0 mi WNW 12.7 mph 26.5 mph N/A Snow Light Snow
1:34 AM 21.2 °F 8.3 °F 12.2 °F 68% 30.03 in 7.0 mi NW 13.8 mph 25.3 mph N/A   Mostly Cloudy
1:54 AM 20.7 °F 7.6 °F 12.0 °F 69% 30.04 in 7.0 mi NW 13.8 mph 29.9 mph N/A   Clear
2:14 AM 19.6 °F 4.7 °F 12.2 °F 73% 30.05 in 7.0 mi NW 17.3 mph 25.3 mph N/A   Scattered Clouds
2:34 AM 19.0 °F 6.8 °F 12.2 °F 75% 30.06 in 5.0 mi NNW 11.5 mph 26.5 mph N/A   Haze
2:54 AM 18.1 °F 4.4 °F 10.2 °F 71% 30.08 in 10.0 mi NNW 13.8 mph 25.3 mph N/A   Clear
3:14 AM 18.0 °F 4.8 °F 10.0 °F 71% 30.09 in 10.0 mi NNW 12.7 mph 20.7 mph N/A   Clear
3:34 AM 18.0 °F 8.7 °F 10.6 °F 73% 30.11 in 10.0 mi NNW 6.9 mph - N/A   Scattered Clouds
3:54 AM 18.0 °F 6.9 °F 10.9 °F 74% 30.12 in 10.0 mi NNW 9.2 mph 24.2 mph N/A   Scattered Clouds
4:14 AM 18.0 °F 6.9 °F 11.7 °F 76% 30.13 in 7.0 mi NNW 9.2 mph 18.4 mph N/A Snow Light Snow
4:34 AM 15.6 °F 2.5 °F 8.6 °F 74% 30.15 in 10.0 mi North 11.5 mph 18.4 mph N/A   Scattered Clouds
4:54 AM 15.4 °F 4.6 °F 8.2 °F 73% 30.16 in 10.0 mi North 8.1 mph - N/A   Clear
5:14 AM 14.4 °F 6.9 °F 7.5 °F 74% 30.17 in 10.0 mi North 4.6 mph - N/A   Clear
5:34 AM 13.1 °F 7.1 °F 6.8 °F 76% 30.18 in 10.0 mi North 3.5 mph - N/A   Scattered Clouds
5:54 AM 13.1 °F 7.1 °F 7.0 °F 77% 30.18 in 10.0 mi NNE 3.5 mph - N/A   Mostly Cloudy
6:34 AM 12.9 °F 5.2 °F 7.5 °F 79% 30.20 in 10.0 mi NE 4.6 mph - N/A Snow Light Snow
6:54 AM 12.9 °F - 8.1 °F 81% 30.22 in 5.0 mi Calm Calm - N/A Snow Light Snow
7:14 AM 13.1 °F 4.0 °F 7.7 °F 79% 30.22 in 10.0 mi NNE 5.8 mph - N/A   Overcast
7:34 AM 12.9 °F - 6.8 °F 77% 30.23 in 10.0 mi Calm Calm - N/A   Mostly Cloudy
7:54 AM 12.9 °F 5.2 °F 6.8 °F 77% 30.24 in 10.0 mi North 4.6 mph - N/A   Scattered Clouds
8:14 AM 12.6 °F 4.8 °F 6.1 °F 75% 30.24 in 10.0 mi NNE 4.6 mph - N/A   Clear
8:35 AM 12.9 °F 6.9 °F 5.4 °F 72% 30.25 in 10.0 mi NNE 3.5 mph - N/A   Clear
8:54 AM 12.0 °F 4.1 °F 4.1 °F 71% 30.26 in 10.0 mi NE 4.6 mph - N/A   Clear
9:14 AM 12.9 °F 3.8 °F 4.8 °F 70% 30.26 in 10.0 mi NE 5.8 mph - N/A   Clear
9:35 AM 12.9 °F 5.2 °F 4.8 °F 70% 30.27 in 10.0 mi ENE 4.6 mph - N/A   Clear
9:54 AM 13.8 °F 4.9 °F 5.0 °F 68% 30.27 in 10.0 mi ENE 5.8 mph - N/A   Clear
10:14 AM 14.5 °F 3.6 °F 5.0 °F 66% 30.27 in 10.0 mi ENE 8.1 mph - N/A   Clear
10:34 AM 15.4 °F 8.1 °F 5.5 °F 65% 30.28 in 10.0 mi East 4.6 mph - N/A   Scattered Clouds
10:54 AM 15.4 °F 6.8 °F 5.7 °F 65% 30.30 in 10.0 mi NNE 5.8 mph - N/A   Mostly Cloudy
11:14 AM 15.4 °F - 5.2 °F 64% 30.30 in 10.0 mi Calm Calm - N/A   Overcast
11:34 AM 15.1 °F 9.4 °F 4.8 °F 64% 30.31 in 10.0 mi East 3.5 mph - N/A   Mostly Cloudy
11:54 AM 15.6 °F 10.0 °F 4.8 °F 62% 30.31 in 10.0 mi ENE 3.5 mph - N/A   Scattered Clouds
12:14 PM 16.5 °F - 4.6 °F 60% 30.32 in 10.0 mi Calm Calm - N/A   Scattered Clouds
12:34 PM 16.9 °F 11.5 °F 4.6 °F 59% 30.32 in 10.0 mi East 3.5 mph - N/A   Scattered Clouds
12:54 PM 18.0 °F 9.8 °F 5.0 °F 57% 30.32 in 10.0 mi SSE 5.8 mph - N/A   Scattered Clouds
1:14 PM 18.0 °F 6.9 °F 4.6 °F 56% 30.32 in 10.0 mi East 9.2 mph - N/A   Clear
1:34 PM 18.1 °F 11.3 °F 4.1 °F 54% 30.32 in 10.0 mi SE 4.6 mph - N/A   Clear
1:54 PM 18.9 °F 13.7 °F 4.5 °F 54% 30.32 in 10.0 mi SSW 3.5 mph - N/A   Clear
2:14 PM 19.9 °F 14.9 °F 4.8 °F 52% 30.32 in 10.0 mi NNW 3.5 mph - N/A   Clear
2:34 PM 19.4 °F 14.3 °F 3.7 °F 51% 30.31 in 10.0 mi NNE 3.5 mph - N/A   Clear
2:54 PM 19.8 °F 13.2 °F 2.8 °F 48% 30.29 in 10.0 mi NNE 4.6 mph - N/A   Clear
3:14 PM 20.5 °F - 1.9 °F 45% 30.28 in 10.0 mi Calm Calm - N/A   Clear
3:34 PM 21.0 °F 13.4 °F 3.0 °F 46% 30.27 in 10.0 mi East 5.8 mph - N/A   Clear
3:54 PM 21.0 °F 16.2 °F 3.4 °F 47% 30.26 in 10.0 mi ENE 3.5 mph - N/A   Clear
4:15 PM 22.5 °F - 3.0 °F 43% 30.26 in 10.0 mi Calm Calm - N/A   Clear
4:34 PM 22.5 °F 15.1 °F 2.8 °F 43% 30.26 in 10.0 mi NNE 5.8 mph - N/A   Clear
4:54 PM 23.0 °F 17.0 °F 3.9 °F 44% 30.25 in 10.0 mi NE 4.6 mph - N/A   Clear
5:15 PM 23.2 °F - 3.0 °F 42% 30.25 in 10.0 mi Calm Calm - N/A   Clear
5:34 PM 23.4 °F 18.9 °F 2.5 °F 41% 30.24 in 10.0 mi ENE 3.5 mph - N/A   Clear
5:54 PM 23.5 °F 17.6 °F 3.0 °F 41% 30.25 in 10.0 mi East 4.6 mph - N/A   Clear
6:14 PM 23.4 °F 15.2 °F 4.1 °F 44% 30.24 in 10.0 mi East 6.9 mph - N/A   Clear
6:34 PM 23.0 °F 13.9 °F 4.3 °F 45% 30.24 in 10.0 mi ENE 8.1 mph - N/A   Clear
6:54 PM 22.6 °F 13.4 °F 4.6 °F 46% 30.24 in 10.0 mi ENE 8.1 mph - N/A   Clear
7:14 PM 21.2 °F 10.1 °F 4.1 °F 48% 30.23 in 10.0 mi ENE 10.4 mph - N/A   Clear
7:34 PM 21.2 °F 12.6 °F 3.4 °F 46% 30.24 in 10.0 mi East 6.9 mph - N/A   Clear
7:54 PM 20.5 °F 10.8 °F 3.9 °F 49% 30.24 in 10.0 mi East 8.1 mph - N/A   Clear
8:14 PM 18.5 °F 6.1 °F 4.8 °F 55% 30.24 in 10.0 mi ENE 11.5 mph 16.1 mph N/A   Clear
8:34 PM 18.0 °F 4.8 °F 5.0 °F 57% 30.24 in 10.0 mi ENE 12.7 mph - N/A   Clear
8:54 PM 18.0 °F 6.1 °F 5.5 °F 58% 30.23 in 10.0 mi ENE 10.4 mph 16.1 mph N/A   Clear
9:14 PM 17.6 °F 6.4 °F 5.9 °F 60% 30.23 in 10.0 mi ENE 9.2 mph - N/A   Clear
9:34 PM 16.3 °F 4.1 °F 5.2 °F 62% 30.23 in 10.0 mi ENE 10.4 mph - N/A   Clear
9:54 PM 15.6 °F 1.8 °F 4.8 °F 62% 30.22 in 10.0 mi ENE 12.7 mph - N/A   Clear
10:14 PM 15.6 °F 1.8 °F 5.2 °F 63% 30.22 in 10.0 mi ENE 12.7 mph - N/A   Clear
10:34 PM 15.4 °F 2.3 °F 5.4 °F 64% 30.22 in 10.0 mi ENE 11.5 mph - N/A   Clear
10:54 PM 15.4 °F 2.3 °F 5.7 °F 65% 30.22 in 10.0 mi ENE 11.5 mph - N/A   Clear
11:14 PM 15.4 °F 1.6 °F 5.9 °F 66% 30.21 in 10.0 mi ENE 12.7 mph - N/A   Clear
11:34 PM 15.4 °F 2.3 °F 6.6 °F 68% 30.21 in 10.0 mi ENE 11.5 mph - N/A   Clear
11:54 PM 15.3 °F 3.5 °F 6.6 °F 69% 30.21 in 10.0 mi ENE 9.2 mph - N/A   Clear